Regional Weather Roundup
Issued by NWS State College, PA

Home | Current Version | Previous Version | Graphics & Text | Print | Product List | Glossary Off
Versions: 1 2 3 4 5 6 7 8 9 10 11 12 13 14 15 16 17 18 19 20 21 22 23 24 25 26 27 28 29 30 31 32 33 34 35 36 37 38 39 40 41 42 43 44 45 46 47 48 49 50

000
ASUS41 KCTP 161403
RWRCTP

REGIONAL WEATHER ROUNDUP
NATIONAL WEATHER SERVICE STATE COLLEGE PA
1000 AM EDT TUE SEP 16 2014

Note: "fair" indicates few or no clouds below 12,000 feet with no
significant weather and/or obstructions to visibility.

* = STATION THAT DOES NOT REPORT PRECIPITATION /E.G. RAIN...SNOW...ETC/
    THUNDER OR FOG.

PAZ002>004-007>009-013>016-020>023-029>032-161500-
WESTERN PENNSYLVANIA

CITY           SKY/WX    TMP DP  RH WIND       PRES   REMARKS
ERIE           CLOUDY    60  47  61 N8        30.13R
MEADVILLE      CLOUDY    57  51  80 VRB6      30.13R
FRANKLIN*      CLOUDY    54  50  87 NW7       30.14R
NEW CASTLE     CLOUDY    54  52  93 CALM      30.15R
BEAVER COUNTY  CLOUDY    54  52  94 CALM      30.14R
BUTLER*        PTSUNNY   57  50  77 NW3       30.15R
PITTSBURGH INT PTSUNNY   57  51  80 N9        30.13R
PITTSBURGH     PTSUNNY   56  49  77 N7        30.12R
INDIANA*       PTSUNNY   57  54  88 NW5       30.15R
LATROBE        NOT AVBL
WASHINGTON CO* MOSUNNY   59  48  67 NW7       30.13S
$$

PAZ004>006-010>012-017>019-024>028-033>037-041-042-045-046-049>053-161500-
CENTRAL PENNSYLVANIA

CITY           SKY/WX    TMP DP  RH WIND       PRES   REMARKS
BRADFORD       CLOUDY    52  49  89 NW8       30.10R
DUBOIS         PTSUNNY   57  50  77 N8        30.10R
CLEARFIELD     CLOUDY    57  52  83 N7        30.10R
JOHNSTOWN      CLOUDY    52  50  93 NW8       30.10R
ALTOONA        CLOUDY    58  53  84 NW13      30.10R
STATE COLLEGE  CLOUDY    57  54  88 W5        30.08R
WILLIAMSPORT   PTSUNNY   62  54  74 SW8       30.04F
SELINSGROVE    CLOUDY    59  56  89 NE3       30.06S
FT INDIANTOWN  CLOUDY    63  58  82 NW7       30.04R
CAPITAL CITY   PTSUNNY   64  56  75 SW3       30.04S
HARRISBURG     PTSUNNY   63  55  75 NW8       30.03S
YORK           SUNNY     68  55  63 NW8       30.04R
$$

PAZ038>040-043-044-047-048-054-055-060>062-067>071-161500-
EASTERN PENNSYLVANIA

CITY           SKY/WX    TMP DP  RH WIND       PRES   REMARKS
SCRANTON       PTSUNNY   60  50  69 CALM      30.04R
MOUNT POCONO   SUNNY     59  50  72 NW6       30.04R
ALLENTOWN      SUNNY     62  55  77 CALM      30.02F
QUAKERTOWN*    SUNNY     63  55  77 MISG      30.02F
READING        SUNNY     65  55  70 NW5       30.02S
LANCASTER      MOSUNNY   65  55  70 NW9       30.03R
COATESVILLE    SUNNY     64  57  77 NW10      30.03R
POTTSTOWN      MOSUNNY   62  57  83 NW5       30.03S
BLUE BELL      MOSUNNY   64  59  82 CALM      30.01S
DOYLESTOWN     PTSUNNY   60  58  92 N5        30.01S
WILLOW GROVE   NOT AVBL
NORTH PHILA    PTSUNNY   65  57  75 NW9       30.03R
PHILADELPHIA   MOSUNNY   67  59  75 NW10      30.01R
$$



USA.gov is the U.S. government's official web portal to all federal, state and local government web resources and services.